Regional Weather Roundup
Issued by NWS Grand Forks, ND

Home | Current Version | Previous Version | Text Only | Print | Product List | Glossary On
Versions: 1 2 3 4 5 6 7 8 9 10 11 12 13 14 15 16 17 18 19 20 21 22 23 24 25 26 27 28 29 30 31 32 33 34 35 36 37 38 39 40 41 42 43 44 45 46 47 48 49 50
000
ASUS43 KFGF 291131
RWRFGF
PRAIRIE TO PINES  WEATHER ROUNDUP
NATIONAL WEATHER SERVICE EASTERN NORTH DAKOTA/GRAND FORKS ND
600 AM CDT THU JUN 29 2017

 **SATELLITE DATA USED TO AUGMENT SKY COVER AT AUTOMATED STATIONS**
 *****  WEATHER ACROSS EASTERN NORTH DAKOTA  *****

CITY           SKY/WX    TMP DP  RH WIND       PRES   REMARKS
GRAND FORKS    FOG       59  59 100 N3        29.75S VSB 1/4
GRAND FRKS AFB FOG       57  57 100 N3        29.75R VSB 1/8
DEVILS LAKE    FAIR      54  54 100 CALM      29.78R FOG
FARGO          CLOUDY    62  60  93 N8        29.74S
WAHPETON ARPT  CLOUDY    61  55  82 N8        29.75R
$$

 ***** WEATHER ACROSS CENTRAL AND WESTERN NORTH DAKOTA  *****

CITY           SKY/WX    TMP DP  RH WIND       PRES   REMARKS
BISMARCK       FAIR      59  55  87 CALM      29.80R
MINOT          FAIR      56  50  80 W3        29.79R
JAMESTOWN      FAIR      53  51  93 NW3       29.75F
MINOT AFB      FAIR      49  47  93 W6        29.78R
GARRISON         N/A     56  51  84 N3        29.79R
WILLISTON      MOCLDY    53  48  83 N5        29.80S
DICKINSON      FAIR      59  44  57 E7        29.78R
HETTINGER      CLOUDY    58  48  69 S7        29.83R
$$

 *****  OTHER AIRPORT OBSERVATIONS IN OUR AREA  *****

CITY           SKY/WX    TMP DP  RH WIND       PRES   REMARKS
WALHALLA       NOT AVBL
GRAFTON AIRPOR FOG       55  55 100 CALM      29.78R VSB<1/4
VALLEY CITY AR FOG       55  55 100 NE5       29.77S VSB<1/4
CANDO          NOT AVBL
CAVALIER APRT  FOG       57 N/A N/A CALM      29.75R VSB<1/4
GWINNER        FOG       59  59 100 CALM      29.75S VSB 1/4
SHEYENNE NWR     N/A     58  58 100 CALM      29.95S
ROLLA            N/A     54  52  94 CALM      29.79R
 ***** THE ABOVE OBSERVATIONS ARE NON NWS ARE NOT QUALITY
       CONTROLLED AND MAY MIS-REPORT RAIN FOR SNOW...
$$

  *****  WEATHER ACROSS NORTHERN MINNESOTA  *****

CITY           SKY/WX    TMP DP  RH WIND       PRES   REMARKS
FLAG ISLAND    CLOUDY    63  57  82 N7        29.73R
WARROAD        CLOUDY    55  52  88 NW3       29.74S
ROSEAU         FAIR      57  52  82 N3        29.73F
HALLOCK        FOG       54  52  94 NE3       29.75R VSB 1/4
THF RVR FALLS  FOG       57  57 100 N6        29.76R VSB 1/2
BAUDETTE       FAIR      58  58 100 N9        29.71R
WASKISH        CLOUDY    57  57 100 NW5       29.72R FOG
CROOKSTON      CLOUDY    57  57 100 CALM      29.76R
STEPHEN NDAWN    N/A     55  54  94 CALM        N/A
GREENBUSH NDAW   N/A     54  54 100 CALM        N/A
$$
  *****  WEATHER ACROSS CENTRAL AND WEST MINNESOTA  *****

CITY           SKY/WX    TMP DP  RH WIND       PRES   REMARKS
FOSSTON          N/A     57  57 100 N6        29.75R
BEMIDJI        CLOUDY    58  58  97 NW8       29.72S
PARK RAPIDS    CLOUDY    61  56  83 NW8       29.71S
ELBOW LAKE     CLOUDY    61  60  94 NW7       29.73S
WADENA         CLOUDY    61  57  88 N6        29.71F
DETROIT LAKES  CLOUDY    59  57  94 NW8       29.75R FOG
MOORHEAD       CLOUDY    61  57  88 N3        29.75S
FERGUS FALLS   CLOUDY    61  61 100 N7        29.71S
MORRIS MN      CLOUDY    63  61  94 N8        29.71R
STAPLES        CLOUDY    61  57  88 NW8       29.71S
$$
  *****  WEATHER ELSEWHERE ACROSS MINNESOTA  *****

CITY           SKY/WX    TMP DP  RH WIND       PRES   REMARKS
DULUTH         DRIZZLE   59  59 100 N10G18    29.60R FOG
INTRNTL FALLS  CLOUDY    59  56  89 NE6       29.67S
ELY            DRIZZLE   57  57 100 CALM      29.61R
CLOQUET        CLOUDY    59  57  94 W8        29.63R
WHEATON        MOCLDY    61  59  94 NW7       29.74R FOG
BRAINERD       CLOUDY    60  58  92 NW9       29.70R
HIBBING        CLOUDY    57  57 100 NW13      29.63R
ALEXANDRIA     CLOUDY    62  59  90 N7        29.72F
SAINT CLOUD    CLOUDY    63  59  87 NW14      29.68F
MINNEAPOLIS    CLOUDY    65  58  78 W8        29.68R
$$

  *****  WEATHER ACROSS SOUTH DAKOTA  *****

CITY           SKY/WX    TMP DP  RH WIND       PRES   REMARKS
SIOUX FALLS    FAIR      59  59 100 CALM      29.78R
BROOKINGS      FAIR      53  52  96 CALM      29.78R
WATERTOWN      FOG       53  53 100 CALM      29.77R VSB 1/4
HURON          FAIR      54  49  83 CALM      29.75R
SISSETON         N/A     58  58 100 NW7       29.73R
ABERDEEN       FAIR      50  49  96 CALM      29.76R
MITCHELL       FAIR      58  50  75 CALM      29.77R
PIERRE         FAIR      55  46  71 N8        29.75R
MOBRIDGE       MOCLDY    61  49  64 NW3       29.76R
RAPID CITY     CLOUDY    59  52  77 N8        29.83R
$$

  *****  SOME WEATHER IN NEARBY STATES *****

CITY           SKY/WX    TMP DP  RH WIND       PRES   REMARKS
GLASGOW MT     FAIR      51  45  79 NW13      29.82R
GREAT FALLS MT CLOUDY    52  44  74 NW7       30.04R
CHEYENNE WY    FAIR      53  36  52 W9        29.98R
SCOTTSBLUFF NE FAIR      57  47  69 NW7       29.86R
OMAHA NE       MOCLDY    73  68  84 S7        29.76R
DES MOINES IA  CLOUDY    71  67  87 SW9       29.75S
DAVENPORT IA   NOT AVBL
CHICAGO IL     MOCLDY    71  63  75 SW9       29.75R
EAU CLAIRE WI  CLOUDY    64  60  87 W8        29.63R
LA CROSSE WI   FAIR      64  62  93 W6        29.68R
$$

  *****  SOME NATIONAL WEATHER *****

CITY           SKY/WX    TMP DP  RH WIND       PRES   REMARKS
LA GUARDIA NY  PTSUNNY   70  58  65 SW13      30.15S
RALEIGH NC     MOCLDY    62  59  90 CALM      30.22R
ATLANTA GA     MOCLDY    72  67  84 SE8       30.17S
NEW ORLEANS LA LGT RAIN  74  73  97 SE12      29.99R
OKLAHOMA CITY  FAIR      73  68  84 S16       29.82R
ALBUQUERQUE NM FAIR      70  21  15 SE8       30.05R
SALT LAKE CITY FAIR      66  46  48 SE5       29.96R
LOS ANGELES CA CLOUDY    65  58  78 SE7       29.90R
BOISE ID       FAIR      59  41  51 CALM      29.96R
SEATTLE WA     FAIR      53  50  89 SW3       30.12R
$$

*** WEATHER ACROSS MANITOBA...SASKATCHEWAN AND ONTARIO ***
                ***ONTARIO***

CITY           SKY/WX    TMP DP  RH WIND       PRES   REMARKS
GERALDTON      MOCLDY    55  52  88 NE9       29.74S
THUNDER BAY    RAIN      55  55 100 E17G25    29.62R FOG
SIOUX LOOKOUT  CLOUDY    59  50  72 E2        29.73R
TORONTO        CLOUDY    61  57  88 SE13      29.90F
BIG TROUT LK   CLOUDY    55  46  71 E7        29.88S
PICKLE LAKE    CLOUDY    57  52  82 E7        29.79
DRYDEN         CLOUDY    59  54  82 NE9       29.72R
KENORA         MOCLDY    59  57  94 N6        29.74R
$$
                *** MANITOBA***

CITY           SKY/WX    TMP DP  RH WIND       PRES   REMARKS
BRANDON        MOCLDY    48  48 100 NW3       29.77R
DAUPHIN        CLOUDY    55  54  94 W7        29.77R
ISLAND LAKE    CLOUDY    55  54  94 VRB2      29.79R
PILOT MOUND      N/A     52  50  93 W3          N/A
THE PAS        CLOUDY    50  48  93 NW7       29.78R
THOMPSON       LGT RAIN  50  48  93 NE9       29.80R FOG
WINNIPEG       PTCLDY    55  55 100 S5        29.74R
LYNN LAKE      LGT RAIN  45  45 100 NE12G21   29.85S
CHURCHILL      PTSUNNY   43  39  87 E10       30.08S
GILLAM         CLOUDY    46  41  81 E10G18    29.90F
$$
                ***SASKATCHEWAN***

CITY           SKY/WX    TMP DP  RH WIND       PRES   REMARKS
ESTEVAN        CLOUDY    55  52  88 NE6       29.79S
KINDERSLEY     MOCLDY    48  46  93 N10G20    29.93R
LLOYDMINSTER   CLOUDY    45  41  87 N7        30.00R
PRINCE ALBERT  MOCLDY    46  45  93 N7        29.90R
REGINA         MOCLDY    48  46  93 S6        29.80R
YORKTON        CLOUDY    54  52  94 E2        29.79R
N. BATTLEFORD  CLOUDY    46  43  87 N13       29.96R
LA RONGE       CLOUDY    48  45  87 NW10      29.87R
SASKATOON      MOCLDY    48  46  93 N14G22    29.90R
SWIFT CURRENT  PTCLDY    48  48 100 W13       29.87R
$$
NOTE: THESE ARE AUTOMATED STATIONS WITH LIMITED QUALITY CONTROL
      "FAIR" INDICATES FEW OR NO CLOUDS BELOW 12,000 FEET WITH NO
      SIGNIFICANT WEATHER AND/OR OBSTRUCTIONS TO VISIBILITY.
      SKY/WX - SKY CONDITION AND SIGNIFICANT WEATHER.
      TMP - AIR TEMPERATURE.    DP   - DEWPOINT TEMPERATURE.
      RH  - RELATIVE HUMIDITY.  PRES - PRESSURE.
      HX  - HEAT INDEX.         WCI  - WIND CHILL INDEX.
$




USA.gov is the U.S. government's official web portal to all federal, state and local government web resources and services.